Regional Weather Roundup
Issued by NWS

Home | Current Version | Previous Version | Text Only | Print | Product List | Glossary Off
Versions: 1 2 3 4 5 6 7 8 9 10 11 12 13 14 15 16 17 18 19 20 21 22 23 24 25 26 27 28 29 30 31 32 33 34 35 36 37 38 39 40 41 42 43 44 45 46 47 48 49 50

036
ASUS43 KIND 280209
RWRIN

WEATHER ROUNDUP FOR INDIANA
NATIONAL WEATHER SERVICE INDIANAPOLIS IN
1000 PM EDT FRI MAY 27 2016

NOTE: "FAIR" INDICATES FEW OR NO CLOUDS BELOW 12,000 FEET WITH NO
SIGNIFICANT WEATHER AND/OR OBSTRUCTIONS TO VISIBILITY.

* - STATION DOES NOT REPORT WEATHER SUCH AS PRECIPITATION OR FOG.

+ - STATION NOT QUALITY CONTROLLED BY THE NATIONAL WEATHER SERVICE.
    USE DATA WITH CAUTION...ESPECIALLY DEWPOINT AND RELATIVE
    HUMIDITY OBSERVATIONS.

INZ001>003-010>013-019-020-280300-
NORTHWEST INDIANA

CITY           SKY/WX    TMP DP  RH WIND       PRES   REMARKS
GARY /AIRPORT/ MOCLDY    72  72 100 S8        29.88R
KNOX *+        CLOUDY    72  66  83 S6        29.90R
LA PORTE +     CLOUDY   N/A N/A N/A CALM      29.91R
MICHIGAN CITY+ CLOUDY    68  68 100 CALM      29.90R
MONTICELLO +   CLOUDY    78  54  43 S5        29.91R
RENSSELAER +   CLOUDY    70  68  94 S18G26    29.92R
VALPARAISO     LGT RAIN  71  67  87 SW14G23   29.92R

$$

LMZ046-743>745-280300-
SOUTHERN LAKE MICHIGAN

STATION/POSITION TIME  TEMP    WIND        PRES    WAVE
                       AIR SEA DIR/SP/G            HT
                 (UTC) (F)     (DEG/KT/KT) (MB)    (FT)
BURNS HARBOR     0100   73     200/ 11/ 19 1012.2R
MICHIGAN CITY    0100   73     150/  7/  9   N/A
5NW MICH CITY    0200   65 59  200/  6/  8   N/A     0

$$

INZ004-005-014>016-021>024-280300-
NORTH CENTRAL INDIANA

CITY           SKY/WX    TMP DP  RH WIND       PRES   REMARKS
GOSHEN         CLEAR     75  59  57 S8        29.91R
LOGANSPORT +   CLEAR     73  55  53 S7        29.93R
PERU/GRISSOM   PTCLDY    76  58  54 S8        29.93R
ROCHESTER +    CLEAR     81  55  41 S6        29.93R
SOUTH BEND     PTCLDY    70  68  93 SE5       29.91R
WARSAW +       CLEAR     79  57  47 S3        29.93R

$$

INZ006>009-017-018-025>027-280300-
NORTHEAST INDIANA

CITY           SKY/WX    TMP DP  RH WIND       PRES   REMARKS
ANGOLA *+        N/A     77  63  61 S5        29.94R
AUBURN +       CLEAR     79  55  44 CALM      29.95R
FORT WAYNE     MOCLDY    78  59  51 S8        29.95R
HUNTINGTON +   CLEAR    N/A N/A N/A S6        29.94R

$$

INZ028-029-035-036-043>045-051>053-280300-
WEST CENTRAL INDIANA

CITY           SKY/WX    TMP DP  RH WIND       PRES   REMARKS
CRAWFORDSVL +  CLOUDY    75  61  61 S10       29.93R
GREENCASTLE +  MOCLDY    72  64  78 S6        29.94S
LAFAYETTE      CLOUDY    73  65  75 SW5       29.91R
TERRE HAUTE    PTCLDY    71  66  84 W3        29.92R

$$

INZ030>032-037>040-046>048-054>057-064-065-280300-
CENTRAL INDIANA

CITY           SKY/WX    TMP DP  RH WIND       PRES   REMARKS
CP ATTERBURY + PTCLDY    72  59  64 S5        29.97R
COLUMBUS       CLEAR     73  61  64 S9        29.96R
FISHERS *+     PTCLDY    75  63  64 S7        29.95
FRANKFORT +      N/A     77  46  33 CALM      29.95R
GREENWOOD *+   CLOUDY    75  61  60 S7        29.96S
INDIANAPOLIS   CLOUDY    77  61  57 S8        29.94R
-EAGLE CREEK   CLOUDY    80  59  48 S6        29.94R
KOKOMO *+      CLEAR     75  57  53 S8        29.93R
MARION +       CLEAR     77  58  50 S8        29.96R
SHELBYVILLE    CLEAR     79  63  57 S9        29.96R
ZIONSVILLE +   CLOUDY    77  59  53 S10       29.96R

$$

INZ033-034-041-042-049-050-058-059-280300-
EAST CENTRAL INDIANA

CITY           SKY/WX    TMP DP  RH WIND       PRES   REMARKS
MUNCIE         PTCLDY    80  61  52 S8        29.96R

$$

INZ060-061-067>069-081>083-085>088-280300-
SOUTHWEST INDIANA

CITY           SKY/WX    TMP DP  RH WIND       PRES   REMARKS
EVANSVILLE     CLOUDY    78  62  57 S7        29.92F
HUNTINGBURG *+ CLOUDY    77  63  61 S3        29.95R
WASHINGTON +   CLOUDY    75  63  65 S6        29.93S

$$

INZ062-063-066-070>080-084-089>092-280300-
SOUTH CENTRAL AND SOUTHEAST INDIANA

CITY           SKY/WX    TMP DP  RH WIND       PRES   REMARKS
BEDFORD +      CLOUDY    75  70  83 SE3       29.96R
BLOOMINGTON    CLOUDY    76  61  59 S5        29.95R
MADISON *+     CLEAR     75  63  64 CALM      30.01R
NORTH VERNON + CLEAR     73  70  88 CALM      29.98R
SEYMOUR +      CLEAR     77  64  65 CALM      29.97R

$$





USA.gov is the U.S. government's official web portal to all federal, state and local government web resources and services.